{"data":{"norad_id":68608,"intl_designator":"2026-073G","name":"STARLINK-37243","alt_names":[],"object_type":"PAYLOAD","status":"ACTIVE","operator":null,"country":"US","launch_date":"2026-04-07","launch_site_code":"AFWTR","launch_vehicle":null,"mission":null,"orbit_class":"UNKNOWN","rcs_meters":null,"size_class":null,"mass_kg":null,"dimensions":null,"purposes":["comms"],"wikipedia_slug":null,"has_3d_model":false,"image_url":null,"decayed_at":null,"tle_current":{"epoch":"2026-05-25T04:00:03.998880Z","epoch_age_seconds":56720,"freshness":"FRESH","line1":"1 68608U 26073G   26145.16671295 -.02626721  00000+0 -44082-1 0  9997","line2":"2 68608  97.2846 344.7632 0002318  86.2180  97.5931 15.55196960  6012","mean_motion":15.5519696,"eccentricity":0.0002318,"inclination_deg":97.2846,"raan_deg":344.7632,"arg_perigee_deg":86.218,"mean_anomaly_deg":97.5931,"bstar":-0.044082,"rev_number":601,"period_min":92.592773586697,"perigee_km":400.00861294839,"apogee_km":403.15168981977,"semimajor_km":6779.7171513841,"source":"CELESTRAK","updated_at":"2026-05-25T13:38:21.967279Z"}}}